Year,Month,Day,Hour,Minute,Value (Times are PST for temperature in C)
2018,04,26,00,00,11.20
2018,04,26,00,01,11.20
2018,04,26,00,02,11.20
2018,04,26,00,03,11.30
2018,04,26,00,04,11.30
2018,04,26,00,05,11.30
2018,04,26,00,06,11.30
2018,04,26,00,07,11.30
2018,04,26,00,08,11.30
2018,04,26,00,09,11.30
2018,04,26,00,10,11.30
2018,04,26,00,11,11.40
2018,04,26,00,12,11.50
2018,04,26,00,13,11.60
2018,04,26,00,14,11.70
2018,04,26,00,15,11.90
2018,04,26,00,16,12.00
2018,04,26,00,17,12.10
2018,04,26,00,18,12.20
2018,04,26,00,19,12.30
2018,04,26,00,20,12.40
2018,04,26,00,21,12.50
2018,04,26,00,22,12.60
2018,04,26,00,23,12.70
2018,04,26,00,24,12.70
2018,04,26,00,25,12.80
2018,04,26,00,26,12.80
2018,04,26,00,27,12.90
2018,04,26,00,28,12.90
2018,04,26,00,29,12.90
2018,04,26,00,30,13.00
2018,04,26,00,31,13.00
2018,04,26,00,32,13.00
2018,04,26,00,33,13.00
2018,04,26,00,34,12.90
2018,04,26,00,35,12.90
2018,04,26,00,36,12.80
2018,04,26,00,37,12.80
2018,04,26,00,38,12.80
2018,04,26,00,39,12.70
2018,04,26,00,40,12.70
2018,04,26,00,41,12.70
2018,04,26,00,42,12.70
2018,04,26,00,43,12.70
2018,04,26,00,44,12.60
2018,04,26,00,45,12.60
2018,04,26,00,46,12.60
2018,04,26,00,47,12.60
2018,04,26,00,48,12.50
2018,04,26,00,49,12.50
2018,04,26,00,50,12.40
2018,04,26,00,51,12.40
2018,04,26,00,52,12.40
2018,04,26,00,53,12.40
2018,04,26,00,54,12.30
2018,04,26,00,55,12.30
2018,04,26,00,56,12.30
2018,04,26,00,57,12.30
2018,04,26,00,58,12.30
2018,04,26,00,59,12.30
2018,04,26,01,00,12.30
2018,04,26,01,01,12.30
2018,04,26,01,02,12.30
2018,04,26,01,03,12.30
2018,04,26,01,04,12.30
2018,04,26,01,05,12.30
2018,04,26,01,06,12.20
2018,04,26,01,07,12.20
2018,04,26,01,08,12.00
2018,04,26,01,09,12.00
2018,04,26,01,10,11.80
2018,04,26,01,11,11.70
2018,04,26,01,12,11.60
2018,04,26,01,13,11.50
2018,04,26,01,14,11.50
2018,04,26,01,15,11.40
2018,04,26,01,16,11.30
2018,04,26,01,17,11.30
2018,04,26,01,18,11.20
2018,04,26,01,19,11.20
2018,04,26,01,20,11.10
2018,04,26,01,21,11.10
2018,04,26,01,22,11.10
2018,04,26,01,23,11.10
2018,04,26,01,24,11.00
2018,04,26,01,25,11.00
2018,04,26,01,26,10.90
2018,04,26,01,27,10.90
2018,04,26,01,28,10.80
2018,04,26,01,29,10.80
2018,04,26,01,30,10.70
2018,04,26,01,31,10.60
2018,04,26,01,32,10.60
2018,04,26,01,33,10.50
2018,04,26,01,34,10.50
2018,04,26,01,35,10.50
2018,04,26,01,36,10.50
2018,04,26,01,37,10.50
2018,04,26,01,38,10.50
2018,04,26,01,39,10.50
2018,04,26,01,40,10.50
2018,04,26,01,41,10.50
2018,04,26,01,42,10.40
2018,04,26,01,43,10.40
2018,04,26,01,44,10.40
2018,04,26,01,45,10.40
2018,04,26,01,46,10.40
2018,04,26,01,47,10.30
2018,04,26,01,48,10.30
2018,04,26,01,49,10.40
2018,04,26,01,50,10.40
2018,04,26,01,51,10.40
2018,04,26,01,52,10.50
2018,04,26,01,53,10.50
2018,04,26,01,54,10.60
2018,04,26,01,55,10.60
2018,04,26,01,56,10.60
2018,04,26,01,57,10.70
2018,04,26,01,58,10.70
2018,04,26,01,59,10.80
2018,04,26,02,00,10.70
2018,04,26,02,01,10.70
2018,04,26,02,02,10.70
2018,04,26,02,03,10.60
2018,04,26,02,04,10.60
2018,04,26,02,05,10.60
2018,04,26,02,06,10.50
2018,04,26,02,07,10.50
2018,04,26,02,08,10.40
2018,04,26,02,09,10.40
2018,04,26,02,10,10.30
2018,04,26,02,11,10.30
2018,04,26,02,12,10.20
2018,04,26,02,13,10.20
2018,04,26,02,14,10.20
2018,04,26,02,15,10.20
2018,04,26,02,16,10.20
2018,04,26,02,17,10.20
2018,04,26,02,18,10.10
2018,04,26,02,19,10.10
2018,04,26,02,20,10.10
2018,04,26,02,21,10.10
2018,04,26,02,22,10.10
2018,04,26,02,23,10.10
2018,04,26,02,24,10.10
2018,04,26,02,25,10.10
2018,04,26,02,26,10.00
2018,04,26,02,27,10.00
2018,04,26,02,28,9.90
2018,04,26,02,29,9.90
2018,04,26,02,30,9.90
2018,04,26,02,31,9.80
2018,04,26,02,32,9.80
2018,04,26,02,33,9.70
2018,04,26,02,34,9.60
2018,04,26,02,35,9.60
2018,04,26,02,36,9.50
2018,04,26,02,37,9.50
2018,04,26,02,38,9.50
2018,04,26,02,39,9.40
2018,04,26,02,40,9.40
2018,04,26,02,41,9.40
2018,04,26,02,42,9.40
2018,04,26,02,43,9.30
2018,04,26,02,44,9.30
2018,04,26,02,45,9.30
2018,04,26,02,46,9.30
2018,04,26,02,47,9.30
2018,04,26,02,48,9.30
2018,04,26,02,49,9.40
2018,04,26,02,50,9.40
2018,04,26,02,51,9.40
2018,04,26,02,52,9.40
2018,04,26,02,53,9.40
2018,04,26,02,54,9.30
2018,04,26,02,55,9.30
2018,04,26,02,56,9.30
2018,04,26,02,57,9.30
2018,04,26,02,58,9.30
2018,04,26,02,59,9.30
2018,04,26,03,00,9.30
2018,04,26,03,01,9.30
2018,04,26,03,02,9.30
2018,04,26,03,03,9.30
2018,04,26,03,04,9.30
2018,04,26,03,05,9.40
2018,04,26,03,06,9.40
2018,04,26,03,07,9.40
2018,04,26,03,08,9.40
2018,04,26,03,09,9.40
2018,04,26,03,10,9.40
2018,04,26,03,11,9.30
2018,04,26,03,12,9.30
2018,04,26,03,13,9.20
2018,04,26,03,14,9.20
2018,04,26,03,15,9.20
2018,04,26,03,16,9.10
2018,04,26,03,17,9.10
2018,04,26,03,18,9.10
2018,04,26,03,19,9.10
2018,04,26,03,20,9.20
2018,04,26,03,21,9.30
2018,04,26,03,22,9.40
2018,04,26,03,23,9.50
2018,04,26,03,24,9.70
2018,04,26,03,25,9.80
2018,04,26,03,26,9.90
2018,04,26,03,27,10.00
2018,04,26,03,28,10.10
2018,04,26,03,29,10.20
2018,04,26,03,30,10.30
2018,04,26,03,31,10.40
2018,04,26,03,32,10.50
2018,04,26,03,33,10.50
2018,04,26,03,34,10.50
2018,04,26,03,35,10.40
2018,04,26,03,36,10.40
2018,04,26,03,37,10.30
2018,04,26,03,38,10.20
2018,04,26,03,39,10.10
2018,04,26,03,40,10.00
2018,04,26,03,41,10.00
2018,04,26,03,42,9.90
2018,04,26,03,43,9.80
2018,04,26,03,44,9.80
2018,04,26,03,45,9.70
2018,04,26,03,46,9.60
2018,04,26,03,47,9.60
2018,04,26,03,48,9.50
2018,04,26,03,49,9.40
2018,04,26,03,50,9.40
2018,04,26,03,51,9.40
2018,04,26,03,52,9.30
2018,04,26,03,53,9.30
2018,04,26,03,54,9.30
2018,04,26,03,55,9.20
2018,04,26,03,56,9.20
2018,04,26,03,57,9.20
2018,04,26,03,58,9.10
2018,04,26,03,59,9.10
2018,04,26,04,00,9.10
2018,04,26,04,01,9.00
2018,04,26,04,02,9.00
2018,04,26,04,03,8.90
2018,04,26,04,04,8.90
2018,04,26,04,05,8.90
2018,04,26,04,06,8.90
2018,04,26,04,07,8.90
2018,04,26,04,08,8.80
2018,04,26,04,09,8.80
2018,04,26,04,10,8.80
2018,04,26,04,11,8.80
2018,04,26,04,12,8.80
2018,04,26,04,13,8.80
2018,04,26,04,14,8.80
2018,04,26,04,15,8.70
2018,04,26,04,16,8.70
2018,04,26,04,17,8.70
2018,04,26,04,18,8.70
2018,04,26,04,19,8.70
2018,04,26,04,20,8.70
2018,04,26,04,21,8.60
2018,04,26,04,22,8.60
2018,04,26,04,23,8.60
2018,04,26,04,24,8.60
2018,04,26,04,25,8.60
2018,04,26,04,26,8.60
2018,04,26,04,27,8.60
2018,04,26,04,28,8.60
2018,04,26,04,29,8.60
2018,04,26,04,30,8.60
2018,04,26,04,31,8.60
2018,04,26,04,32,8.60
2018,04,26,04,33,8.60
2018,04,26,04,34,8.60
2018,04,26,04,35,8.60
2018,04,26,04,36,8.60
2018,04,26,04,37,8.60
2018,04,26,04,38,8.50
2018,04,26,04,39,8.50
2018,04,26,04,40,8.50
2018,04,26,04,41,8.40
2018,04,26,04,42,8.40
2018,04,26,04,43,8.40
2018,04,26,04,44,8.30
2018,04,26,04,45,8.30
2018,04,26,04,46,8.30
2018,04,26,04,47,8.30
2018,04,26,04,48,8.20
2018,04,26,04,49,8.20
2018,04,26,04,50,8.20
2018,04,26,04,51,8.20
2018,04,26,04,52,8.20
2018,04,26,04,53,8.10
2018,04,26,04,54,8.10
2018,04,26,04,55,8.10
2018,04,26,04,56,8.10
2018,04,26,04,57,8.10
2018,04,26,04,58,8.10
2018,04,26,04,59,8.10
2018,04,26,05,00,8.10
2018,04,26,05,01,8.00
2018,04,26,05,02,8.00
2018,04,26,05,03,8.00
2018,04,26,05,04,8.00
2018,04,26,05,05,8.00
2018,04,26,05,06,8.10
2018,04,26,05,07,8.10
2018,04,26,05,08,8.10
2018,04,26,05,09,8.20
2018,04,26,05,10,8.20
2018,04,26,05,11,8.20
2018,04,26,05,12,8.20
2018,04,26,05,13,8.30
2018,04,26,05,14,8.30
2018,04,26,05,15,8.30
2018,04,26,05,16,8.40
2018,04,26,05,17,8.40
2018,04,26,05,18,8.50
2018,04,26,05,19,8.50
2018,04,26,05,20,8.60
2018,04,26,05,21,8.70
2018,04,26,05,22,8.70
2018,04,26,05,23,8.80
2018,04,26,05,24,8.80
2018,04,26,05,25,8.90
2018,04,26,05,26,8.90
2018,04,26,05,27,8.90
2018,04,26,05,28,8.90
2018,04,26,05,29,8.90
2018,04,26,05,30,8.80
2018,04,26,05,31,8.80
2018,04,26,05,32,8.80
2018,04,26,05,33,8.80
2018,04,26,05,34,8.80
2018,04,26,05,35,8.80
2018,04,26,05,36,8.80
2018,04,26,05,37,8.80
2018,04,26,05,38,8.80
2018,04,26,05,39,8.80
2018,04,26,05,40,8.80
2018,04,26,05,41,8.80
2018,04,26,05,42,8.70
2018,04,26,05,43,8.70
2018,04,26,05,44,8.60
2018,04,26,05,45,8.60
2018,04,26,05,46,8.60
2018,04,26,05,47,8.50
2018,04,26,05,48,8.50
2018,04,26,05,49,8.50
2018,04,26,05,50,8.40
2018,04,26,05,51,8.40
2018,04,26,05,52,8.40
2018,04,26,05,53,8.30
2018,04,26,05,54,8.30
2018,04,26,05,55,8.20
2018,04,26,05,56,8.20
2018,04,26,05,57,8.20
2018,04,26,05,58,8.20
2018,04,26,05,59,8.10
2018,04,26,06,00,8.10
2018,04,26,06,01,8.10
2018,04,26,06,02,8.10
2018,04,26,06,03,8.10
2018,04,26,06,04,8.10
2018,04,26,06,05,8.00
2018,04,26,06,06,8.00
2018,04,26,06,07,8.00
2018,04,26,06,08,8.00
2018,04,26,06,09,8.00
2018,04,26,06,10,7.90
2018,04,26,06,11,7.90
2018,04,26,06,12,7.90
2018,04,26,06,13,7.90
2018,04,26,06,14,7.80
2018,04,26,06,15,7.80
2018,04,26,06,16,7.80
2018,04,26,06,17,7.80
2018,04,26,06,18,7.80
2018,04,26,06,19,7.80
2018,04,26,06,20,7.80
2018,04,26,06,21,7.80
2018,04,26,06,22,7.80
2018,04,26,06,23,7.70
2018,04,26,06,24,7.70
2018,04,26,06,25,7.70
2018,04,26,06,26,7.70
2018,04,26,06,27,7.70
2018,04,26,06,28,7.70
2018,04,26,06,29,7.70
2018,04,26,06,30,7.70
2018,04,26,06,31,7.70
2018,04,26,06,32,7.70
2018,04,26,06,33,7.70
2018,04,26,06,34,7.80
2018,04,26,06,35,7.80
2018,04,26,06,36,7.80
2018,04,26,06,37,7.90
2018,04,26,06,38,7.90
2018,04,26,06,39,8.00
2018,04,26,06,40,8.00
2018,04,26,06,41,8.10
2018,04,26,06,42,8.10
2018,04,26,06,43,8.20
2018,04,26,06,44,8.20
2018,04,26,06,45,8.30
2018,04,26,06,46,8.30
2018,04,26,06,47,8.30
2018,04,26,06,48,8.30
2018,04,26,06,49,8.30
2018,04,26,06,50,8.30
2018,04,26,06,51,8.30
2018,04,26,06,52,8.30
2018,04,26,06,53,8.30
2018,04,26,06,54,8.30
2018,04,26,06,55,8.30
2018,04,26,06,56,8.30
2018,04,26,06,57,8.30
2018,04,26,06,58,8.30
2018,04,26,06,59,8.30
2018,04,26,07,00,8.40
2018,04,26,07,01,8.40
2018,04,26,07,02,8.50
2018,04,26,07,03,8.60
2018,04,26,07,04,8.60
2018,04,26,07,05,8.70
2018,04,26,07,06,8.70
2018,04,26,07,07,8.80
2018,04,26,07,08,8.90
2018,04,26,07,09,9.00
2018,04,26,07,10,9.00
2018,04,26,07,11,9.10
2018,04,26,07,12,9.10
2018,04,26,07,13,9.20
2018,04,26,07,14,9.20
2018,04,26,07,15,9.20
2018,04,26,07,16,9.30
2018,04,26,07,17,9.30
2018,04,26,07,18,9.30
2018,04,26,07,19,9.30
2018,04,26,07,20,9.30
2018,04,26,07,21,9.30
2018,04,26,07,22,9.30
2018,04,26,07,23,9.30
2018,04,26,07,24,9.20
2018,04,26,07,25,9.20
2018,04,26,07,26,9.20
2018,04,26,07,27,9.20
2018,04,26,07,28,9.20
2018,04,26,07,29,9.20
2018,04,26,07,30,9.20
2018,04,26,07,31,9.20
2018,04,26,07,32,9.20
2018,04,26,07,33,9.20
2018,04,26,07,34,9.20
2018,04,26,07,35,9.30
2018,04,26,07,36,9.30
2018,04,26,07,37,9.30
2018,04,26,07,38,9.40
2018,04,26,07,39,9.40
2018,04,26,07,40,9.40
2018,04,26,07,41,9.40
2018,04,26,07,42,9.50
2018,04,26,07,43,9.50
2018,04,26,07,44,9.60
2018,04,26,07,45,9.60
2018,04,26,07,46,9.70
2018,04,26,07,47,9.80
2018,04,26,07,48,9.80
2018,04,26,07,49,9.90
2018,04,26,07,50,9.90
2018,04,26,07,51,9.90
2018,04,26,07,52,10.00
2018,04,26,07,53,10.00
2018,04,26,07,54,10.00
2018,04,26,07,55,10.10
2018,04,26,07,56,10.10
2018,04,26,07,57,10.20
2018,04,26,07,58,10.20
2018,04,26,07,59,10.30
2018,04,26,08,00,10.30
2018,04,26,08,01,10.30
2018,04,26,08,02,10.30
2018,04,26,08,03,10.30
2018,04,26,08,04,10.30
2018,04,26,08,05,10.40
2018,04,26,08,06,10.40
2018,04,26,08,07,10.40
2018,04,26,08,08,10.40
2018,04,26,08,09,10.50
2018,04,26,08,10,10.50
2018,04,26,08,11,10.50
2018,04,26,08,12,10.60
2018,04,26,08,13,10.60
2018,04,26,08,14,10.60
2018,04,26,08,15,10.70
2018,04,26,08,16,10.70
2018,04,26,08,17,10.80
2018,04,26,08,18,10.90
2018,04,26,08,19,11.00
2018,04,26,08,20,11.00
2018,04,26,08,21,11.10
2018,04,26,08,22,11.10
2018,04,26,08,23,11.20
2018,04,26,08,24,11.30
2018,04,26,08,25,11.40
2018,04,26,08,26,11.50
2018,04,26,08,27,11.50
2018,04,26,08,28,11.60
2018,04,26,08,29,11.70
2018,04,26,08,30,11.70
2018,04,26,08,31,11.70
2018,04,26,08,32,11.80
2018,04,26,08,33,11.80
2018,04,26,08,34,11.90
2018,04,26,08,35,11.90
2018,04,26,08,36,11.90
2018,04,26,08,37,11.90
2018,04,26,08,38,11.90
2018,04,26,08,39,12.00
2018,04,26,08,40,12.10
2018,04,26,08,41,12.10
2018,04,26,08,42,12.10
2018,04,26,08,43,12.20
2018,04,26,08,44,12.20
2018,04,26,08,45,12.20
2018,04,26,08,46,12.30
2018,04,26,08,47,12.30
2018,04,26,08,48,12.40
2018,04,26,08,49,12.40
2018,04,26,08,50,12.40
2018,04,26,08,51,12.50
2018,04,26,08,52,12.50
2018,04,26,08,53,12.50
2018,04,26,08,54,12.60
2018,04,26,08,55,12.60
2018,04,26,08,56,12.70
2018,04,26,08,57,12.70
2018,04,26,08,58,12.80
2018,04,26,08,59,13.00
2018,04,26,09,00,13.10
2018,04,26,09,01,13.20
2018,04,26,09,02,13.30
2018,04,26,09,03,13.30
2018,04,26,09,04,13.30
2018,04,26,09,05,13.40
2018,04,26,09,06,13.40
2018,04,26,09,07,13.50
2018,04,26,09,08,13.50
2018,04,26,09,09,13.50
2018,04,26,09,10,13.60
2018,04,26,09,11,13.60
2018,04,26,09,12,13.70
2018,04,26,09,13,13.70
2018,04,26,09,14,13.70
2018,04,26,09,15,13.80
2018,04,26,09,16,13.80
2018,04,26,09,17,13.90
2018,04,26,09,18,14.00
2018,04,26,09,19,14.00
2018,04,26,09,20,14.10
2018,04,26,09,21,14.20
2018,04,26,09,22,14.20
2018,04,26,09,23,14.30
2018,04,26,09,24,14.40
2018,04,26,09,25,14.50
2018,04,26,09,26,14.60
2018,04,26,09,27,14.70
2018,04,26,09,28,14.70
2018,04,26,09,29,14.70
2018,04,26,09,30,14.70
2018,04,26,09,31,14.80
2018,04,26,09,32,14.80
2018,04,26,09,33,14.80
2018,04,26,09,34,14.80
2018,04,26,09,35,14.90
2018,04,26,09,36,14.90
2018,04,26,09,37,14.90
2018,04,26,09,38,14.80
2018,04,26,09,39,14.80
2018,04,26,09,40,14.90
2018,04,26,09,41,14.90
2018,04,26,09,42,14.90
2018,04,26,09,43,15.00
2018,04,26,09,44,15.10
2018,04,26,09,45,15.20
2018,04,26,09,46,15.20
2018,04,26,09,47,15.30
2018,04,26,09,48,15.30
2018,04,26,09,49,15.30
2018,04,26,09,50,15.40
2018,04,26,09,51,15.50
2018,04,26,09,52,15.60
2018,04,26,09,53,15.60
2018,04,26,09,54,15.70
2018,04,26,09,55,15.80
2018,04,26,09,56,15.90
2018,04,26,09,57,16.00
2018,04,26,09,58,16.20
2018,04,26,09,59,16.30
2018,04,26,10,00,16.40
2018,04,26,10,01,16.50
2018,04,26,10,02,16.50
2018,04,26,10,03,16.60
2018,04,26,10,04,16.60
2018,04,26,10,05,16.50
2018,04,26,10,06,16.50
2018,04,26,10,07,16.40
2018,04,26,10,08,16.40
2018,04,26,10,09,16.50
2018,04,26,10,10,16.50
2018,04,26,10,11,16.60
2018,04,26,10,12,16.70
2018,04,26,10,13,16.70
2018,04,26,10,14,16.70
2018,04,26,10,15,16.80
2018,04,26,10,16,16.80
2018,04,26,10,17,16.80
2018,04,26,10,18,16.80
2018,04,26,10,19,16.80
2018,04,26,10,20,16.80
2018,04,26,10,21,16.90
2018,04,26,10,22,16.90
2018,04,26,10,23,16.90
2018,04,26,10,24,17.00
2018,04,26,10,25,17.20
2018,04,26,10,26,17.30
2018,04,26,10,27,17.30
2018,04,26,10,28,17.20
2018,04,26,10,29,17.10
2018,04,26,10,30,17.00
2018,04,26,10,31,17.00
2018,04,26,10,32,16.90
2018,04,26,10,33,16.90
2018,04,26,10,34,16.90
2018,04,26,10,35,16.90
2018,04,26,10,36,17.00
2018,04,26,10,37,16.90
2018,04,26,10,38,16.90
2018,04,26,10,39,16.90
2018,04,26,10,40,17.00
2018,04,26,10,41,17.10
2018,04,26,10,42,17.10
2018,04,26,10,43,17.20
2018,04,26,10,44,17.20
2018,04,26,10,45,17.30
2018,04,26,10,46,17.40
2018,04,26,10,47,17.50
2018,04,26,10,48,17.60
2018,04,26,10,49,17.70
2018,04,26,10,50,17.80
2018,04,26,10,51,17.90
2018,04,26,10,52,18.00
2018,04,26,10,53,17.90
2018,04,26,10,54,17.90
2018,04,26,10,55,17.90
2018,04,26,10,56,18.00
2018,04,26,10,57,18.00
2018,04,26,10,58,18.10
2018,04,26,10,59,18.10
2018,04,26,11,00,18.00
2018,04,26,11,01,18.00
2018,04,26,11,02,17.90
2018,04,26,11,03,17.90
2018,04,26,11,04,18.00
2018,04,26,11,05,18.10
2018,04,26,11,06,18.20
2018,04,26,11,07,18.30
2018,04,26,11,08,18.40
2018,04,26,11,09,18.60
2018,04,26,11,10,18.60
2018,04,26,11,11,18.50
2018,04,26,11,12,18.50
2018,04,26,11,13,18.50
2018,04,26,11,14,18.60
2018,04,26,11,15,18.60
2018,04,26,11,16,18.70
2018,04,26,11,17,18.80
2018,04,26,11,18,18.80
2018,04,26,11,19,18.90
2018,04,26,11,20,19.00
2018,04,26,11,21,19.00
2018,04,26,11,22,19.10
2018,04,26,11,23,19.20
2018,04,26,11,24,19.30
2018,04,26,11,25,19.40
2018,04,26,11,26,19.50
2018,04,26,11,27,19.60
2018,04,26,11,28,19.70
2018,04,26,11,29,19.80
2018,04,26,11,30,19.80
2018,04,26,11,31,19.90
2018,04,26,11,32,19.90
2018,04,26,11,33,19.80
2018,04,26,11,34,19.80
2018,04,26,11,35,19.70
2018,04,26,11,36,19.70
2018,04,26,11,37,19.70
2018,04,26,11,38,19.70
2018,04,26,11,39,19.60
2018,04,26,11,40,19.60
2018,04,26,11,41,19.50
2018,04,26,11,42,19.40
2018,04,26,11,43,19.40
2018,04,26,11,44,19.30
2018,04,26,11,45,19.40
2018,04,26,11,46,19.60
2018,04,26,11,47,19.70
2018,04,26,11,48,19.80
2018,04,26,11,49,19.90
2018,04,26,11,50,19.90
2018,04,26,11,51,20.00
2018,04,26,11,52,20.10
2018,04,26,11,53,20.20
2018,04,26,11,54,20.20
2018,04,26,11,55,20.20
2018,04,26,11,56,20.10
2018,04,26,11,57,20.10
2018,04,26,11,58,20.10
2018,04,26,11,59,20.10
2018,04,26,12,00,20.00
2018,04,26,12,01,20.10
2018,04,26,12,02,20.10
2018,04,26,12,03,20.00
2018,04,26,12,04,19.90
2018,04,26,12,05,19.80
2018,04,26,12,06,19.80
2018,04,26,12,07,19.90
2018,04,26,12,08,19.90
2018,04,26,12,09,19.90
2018,04,26,12,10,20.00
2018,04,26,12,11,20.00
2018,04,26,12,12,20.10
2018,04,26,12,13,20.20
2018,04,26,12,14,20.30
2018,04,26,12,15,20.30
2018,04,26,12,16,20.40
2018,04,26,12,17,20.40
2018,04,26,12,18,20.50
2018,04,26,12,19,20.70
2018,04,26,12,20,20.80
2018,04,26,12,21,20.90
2018,04,26,12,22,20.90
2018,04,26,12,23,20.90
2018,04,26,12,24,20.90
2018,04,26,12,25,20.90
2018,04,26,12,26,21.00
2018,04,26,12,27,21.00
2018,04,26,12,28,21.00
2018,04,26,12,29,21.00
2018,04,26,12,30,21.00
2018,04,26,12,31,21.10
2018,04,26,12,32,21.10
2018,04,26,12,33,21.20
2018,04,26,12,34,21.20
2018,04,26,12,35,21.20
2018,04,26,12,36,21.10
2018,04,26,12,37,21.10
2018,04,26,12,38,21.10
2018,04,26,12,39,21.00
2018,04,26,12,40,21.00
2018,04,26,12,41,20.90
2018,04,26,12,42,20.90
2018,04,26,12,43,20.90
2018,04,26,12,44,20.90
2018,04,26,12,45,20.90
2018,04,26,12,46,20.80
2018,04,26,12,47,20.70
2018,04,26,12,48,20.70
2018,04,26,12,49,20.60
2018,04,26,12,50,20.60
2018,04,26,12,51,20.70
2018,04,26,12,52,20.70
2018,04,26,12,53,20.70
2018,04,26,12,54,20.80
2018,04,26,12,55,20.80
2018,04,26,12,56,20.90
2018,04,26,12,57,20.90
2018,04,26,12,58,21.00
2018,04,26,12,59,21.10
2018,04,26,13,00,21.10
2018,04,26,13,01,21.20
2018,04,26,13,02,21.30
2018,04,26,13,03,21.30
2018,04,26,13,04,21.40
2018,04,26,13,05,21.40
2018,04,26,13,06,21.40
2018,04,26,13,07,21.30
2018,04,26,13,08,21.30
2018,04,26,13,09,21.20
2018,04,26,13,10,21.20
2018,04,26,13,11,21.20
2018,04,26,13,12,21.30
2018,04,26,13,13,21.30
2018,04,26,13,14,21.40
2018,04,26,13,15,21.50
2018,04,26,13,16,21.50
2018,04,26,13,17,21.40
2018,04,26,13,18,21.40
2018,04,26,13,19,21.30
2018,04,26,13,20,21.30
2018,04,26,13,21,21.20
2018,04,26,13,22,21.20
2018,04,26,13,23,21.20
2018,04,26,13,24,21.20
2018,04,26,13,25,21.20
2018,04,26,13,26,21.20
2018,04,26,13,27,21.10
2018,04,26,13,28,21.10
2018,04,26,13,29,21.10
2018,04,26,13,30,21.10
2018,04,26,13,31,21.10
2018,04,26,13,32,21.10
2018,04,26,13,33,21.10
2018,04,26,13,34,21.00
2018,04,26,13,35,20.90
2018,04,26,13,36,20.80
2018,04,26,13,37,20.80
2018,04,26,13,38,20.80
2018,04,26,13,39,20.90
2018,04,26,13,40,20.90
2018,04,26,13,41,20.90
2018,04,26,13,42,20.80
2018,04,26,13,43,20.80
2018,04,26,13,44,20.90
2018,04,26,13,45,20.80
2018,04,26,13,46,20.80
2018,04,26,13,47,20.80
2018,04,26,13,48,20.80
2018,04,26,13,49,20.80
2018,04,26,13,50,20.90
2018,04,26,13,51,21.00
2018,04,26,13,52,21.10
2018,04,26,13,53,21.20
2018,04,26,13,54,21.30
2018,04,26,13,55,21.40
2018,04,26,13,56,21.50
2018,04,26,13,57,21.50
2018,04,26,13,58,21.60
2018,04,26,13,59,21.70
2018,04,26,14,00,21.80
2018,04,26,14,01,21.80
2018,04,26,14,02,21.90
2018,04,26,14,03,22.00
2018,04,26,14,04,22.10
2018,04,26,14,05,22.20
2018,04,26,14,06,22.20
2018,04,26,14,07,22.30
2018,04,26,14,08,22.30
2018,04,26,14,09,22.40
2018,04,26,14,10,22.40
2018,04,26,14,11,22.50
2018,04,26,14,12,22.50
2018,04,26,14,13,22.40
2018,04,26,14,14,22.40
2018,04,26,14,15,22.40
2018,04,26,14,16,22.40
2018,04,26,14,17,22.40
2018,04,26,14,18,22.40
2018,04,26,14,19,22.30
2018,04,26,14,20,22.30
2018,04,26,14,21,22.30
2018,04,26,14,22,22.30
2018,04,26,14,23,22.30
2018,04,26,14,24,22.30
2018,04,26,14,25,22.20
2018,04,26,14,26,22.10
2018,04,26,14,27,22.10
2018,04,26,14,28,22.00
2018,04,26,14,29,21.90
2018,04,26,14,30,21.90
2018,04,26,14,31,21.80
2018,04,26,14,32,21.80
2018,04,26,14,33,21.80
2018,04,26,14,34,21.80
2018,04,26,14,35,21.80
2018,04,26,14,36,21.80
2018,04,26,14,37,21.90
2018,04,26,14,38,21.90
2018,04,26,14,39,21.90
2018,04,26,14,40,21.90
2018,04,26,14,41,21.90
2018,04,26,14,42,21.90
2018,04,26,14,43,22.00
2018,04,26,14,44,22.00
2018,04,26,14,45,22.10
2018,04,26,14,46,22.10
2018,04,26,14,47,22.10
2018,04,26,14,48,22.00
2018,04,26,14,49,22.10
2018,04,26,14,50,22.10
2018,04,26,14,51,22.10
2018,04,26,14,52,22.10
2018,04,26,14,53,22.10
2018,04,26,14,54,22.20
2018,04,26,14,55,22.20
2018,04,26,14,56,22.30
2018,04,26,14,57,22.40
2018,04,26,14,58,22.50
2018,04,26,14,59,22.60
2018,04,26,15,00,22.60
2018,04,26,15,01,22.60
2018,04,26,15,02,22.60
2018,04,26,15,03,22.60
2018,04,26,15,04,22.70
2018,04,26,15,05,22.70
2018,04,26,15,06,22.70
2018,04,26,15,07,22.70
2018,04,26,15,08,22.70
2018,04,26,15,09,22.70
2018,04,26,15,10,22.70
2018,04,26,15,11,22.70
2018,04,26,15,12,22.60
2018,04,26,15,13,22.60
2018,04,26,15,14,22.60
2018,04,26,15,15,22.60
2018,04,26,15,16,22.60
2018,04,26,15,17,22.70
2018,04,26,15,18,22.70
2018,04,26,15,19,22.70
2018,04,26,15,20,22.70
2018,04,26,15,21,22.80
2018,04,26,15,22,22.80
2018,04,26,15,23,22.90
2018,04,26,15,24,22.90
2018,04,26,15,25,22.90
2018,04,26,15,26,22.90
2018,04,26,15,27,22.90
2018,04,26,15,28,22.90
2018,04,26,15,29,22.80
2018,04,26,15,30,22.80
2018,04,26,15,31,22.80
2018,04,26,15,32,22.80
2018,04,26,15,33,22.80
2018,04,26,15,34,22.80
2018,04,26,15,35,22.80
2018,04,26,15,36,22.90
2018,04,26,15,37,22.80
2018,04,26,15,38,22.80
2018,04,26,15,39,22.90
2018,04,26,15,40,22.80
2018,04,26,15,41,22.80
2018,04,26,15,42,22.90
2018,04,26,15,43,23.00
2018,04,26,15,44,23.10
2018,04,26,15,45,23.20
2018,04,26,15,46,23.20
2018,04,26,15,47,23.20
2018,04,26,15,48,23.20
2018,04,26,15,49,23.20
2018,04,26,15,50,23.20
2018,04,26,15,51,23.20
2018,04,26,15,52,23.20
2018,04,26,15,53,23.20
2018,04,26,15,54,23.20
2018,04,26,15,55,23.20
2018,04,26,15,56,23.20
2018,04,26,15,57,23.20
2018,04,26,15,58,23.20
2018,04,26,15,59,23.20
2018,04,26,16,00,23.20
2018,04,26,16,01,23.20
2018,04,26,16,02,23.30
2018,04,26,16,03,23.30
2018,04,26,16,04,23.30
2018,04,26,16,05,23.30
2018,04,26,16,06,23.30
2018,04,26,16,07,23.30
2018,04,26,16,08,23.30
2018,04,26,16,09,23.40
2018,04,26,16,10,23.50
2018,04,26,16,11,23.60
2018,04,26,16,12,23.70
2018,04,26,16,13,23.80
2018,04,26,16,14,23.80
2018,04,26,16,15,23.80
2018,04,26,16,16,23.80
2018,04,26,16,17,23.80
2018,04,26,16,18,23.80
2018,04,26,16,19,23.80
2018,04,26,16,20,23.90
2018,04,26,16,21,23.90
2018,04,26,16,22,24.00
2018,04,26,16,23,24.00
2018,04,26,16,24,24.10
2018,04,26,16,25,24.10
2018,04,26,16,26,24.10
2018,04,26,16,27,24.10
2018,04,26,16,28,24.10
2018,04,26,16,29,24.10
2018,04,26,16,30,24.10
2018,04,26,16,31,24.10
2018,04,26,16,32,24.10
2018,04,26,16,33,24.10
2018,04,26,16,34,24.00
2018,04,26,16,35,24.00
2018,04,26,16,36,24.00
2018,04,26,16,37,23.90
2018,04,26,16,38,23.90
2018,04,26,16,39,23.80
2018,04,26,16,40,23.80
2018,04,26,16,41,23.80
2018,04,26,16,42,23.70
2018,04,26,16,43,23.70
2018,04,26,16,44,23.70
2018,04,26,16,45,23.70
2018,04,26,16,46,23.80
2018,04,26,16,47,23.80
2018,04,26,16,48,23.90
2018,04,26,16,49,23.90
2018,04,26,16,50,23.90
2018,04,26,16,51,23.90
2018,04,26,16,52,23.90
2018,04,26,16,53,23.90
2018,04,26,16,54,23.90
2018,04,26,16,55,23.90
2018,04,26,16,56,23.90
2018,04,26,16,57,23.90
2018,04,26,16,58,23.90
2018,04,26,16,59,23.90
2018,04,26,17,00,23.90
2018,04,26,17,01,23.90
2018,04,26,17,02,23.90
2018,04,26,17,03,24.00
2018,04,26,17,04,24.00
2018,04,26,17,05,24.00
2018,04,26,17,06,24.10
2018,04,26,17,07,24.10
2018,04,26,17,08,24.10
2018,04,26,17,09,24.10
2018,04,26,17,10,24.10
2018,04,26,17,11,24.10
2018,04,26,17,12,24.10
2018,04,26,17,13,24.10
2018,04,26,17,14,24.10
2018,04,26,17,15,24.10
2018,04,26,17,16,24.10
2018,04,26,17,17,24.10
2018,04,26,17,18,24.10
2018,04,26,17,19,24.10
2018,04,26,17,20,24.10
2018,04,26,17,21,24.10
2018,04,26,17,22,24.10
2018,04,26,17,23,24.10
2018,04,26,17,24,24.10
2018,04,26,17,25,24.10
2018,04,26,17,26,24.10
2018,04,26,17,27,24.10
2018,04,26,17,28,24.10
2018,04,26,17,29,24.10
2018,04,26,17,30,24.10
2018,04,26,17,31,24.20
2018,04,26,17,32,24.20